Theta_e
298 300 301 302 304 305 305 305 306 307 307 307 307 307 308 308 307 307 307 307 307 308 309 310 311 310 309 310 309 309 309 311 312 311 309 307 307 307 308 308 308 308 308 309 311 312 312 312 310 308 308 309 310 311 311 311 312 315 316 316 316 315 313 312 311 311 311 310 311 310 310 311 310 310 310 312 312 310 309 307 305 304 303 303 302 302 301 301
299 301 302 303 304 305 305 306 307 307 307 307 307 307 308 308 307 307 307 307 308 308 309 311 312 310 309 309 309 309 308 310 312 311 310 307 307 308 308 309 309 309 308 309 311 311 310 310 309 309 308 309 310 310 311 311 311 314 316 317 315 313 312 311 311 310 310 310 310 309 310 310 309 309 310 311 310 309 307 306 305 303 302 302 301 301 300 299
300 301 302 304 305 305 306 306 307 307 307 307 307 308 309 308 307 307 306 307 308 309 311 312 311 309 309 309 310 309 309 312 311 310 309 308 308 308 309 309 309 308 308 310 311 311 310 310 309 309 309 310 311 311 313 313 313 314 315 316 314 312 311 310 310 309 309 309 308 309 310 310 309 309 310 311 308 306 306 305 304 303 301 300 300 300 299 299
300 302 303 304 305 305 306 307 307 307 307 307 307 308 309 308 307 307 307 308 309 310 312 311 310 309 309 308 310 310 311 313 310 309 309 308 309 309 309 309 310 309 308 310 311 310 309 310 311 310 311 313 312 312 313 313 314 315 314 314 312 311 311 309 309 308 308 309 308 309 311 310 308 308 309 310 309 306 304 304 303 302 300 300 299 299 299 298
301 303 304 305 305 306 307 307 307 307 308 307 308 309 308 308 307 307 307 308 310 311 311 309 309 309 309 308 309 310 313 314 310 309 308 308 309 309 310 310 310 311 310 311 311 310 310 311 311 312 315 315 314 313 313 311 312 314 313 311 310 310 310 308 308 308 308 308 309 310 311 309 307 307 308 308 307 305 304 303 303 301 300 299 299 299 298 298
303 304 305 305 306 307 307 307 308 308 307 307 308 309 308 308 308 308 308 309 311 311 309 309 309 309 310 309 309 312 313 313 310 309 308 308 309 309 310 310 311 312 313 314 312 311 311 311 310 314 315 315 315 313 312 311 313 315 312 309 308 308 308 307 308 308 308 308 309 310 310 308 307 306 306 305 305 304 303 302 302 301 300 299 298 298 298 297
304 305 305 306 306 307 307 307 308 308 307 308 309 309 308 308 308 308 308 310 311 311 309 309 309 309 310 309 313 314 311 309 308 308 308 308 309 309 311 311 311 312 313 313 312 311 312 311 311 314 315 315 316 313 312 311 312 316 313 309 308 307 307 307 308 308 308 308 309 309 309 308 306 306 305 304 303 303 303 302 301 300 299 298 298 298 297 297
304 305 305 306 307 307 307 308 308 308 308 309 309 309 308 308 308 308 309 311 311 311 311 310 309 310 310 310 315 315 308 307 308 308 308 309 309 309 310 311 311 312 310 310 311 311 311 312 312 313 315 316 316 314 312 313 315 317 314 310 308 307 307 307 308 308 307 308 309 309 308 307 305 305 304 302 302 302 301 301 300 299 299 298 298 298 297 297
305 305 306 307 307 307 307 308 308 307 308 309 309 309 308 308 308 308 310 311 310 311 312 310 310 311 312 312 316 313 307 307 308 308 308 308 309 310 310 311 311 311 309 310 310 310 311 312 311 311 313 313 314 315 314 315 316 315 314 311 308 306 306 307 307 307 308 308 309 308 306 305 305 304 303 302 302 301 300 300 299 299 298 298 298 298 297 296
305 306 307 307 307 307 307 307 308 308 308 309 309 309 309 308 309 309 311 310 310 311 311 310 310 311 313 314 316 311 307 308 307 307 308 309 309 310 310 311 312 310 308 309 310 310 310 311 311 310 312 312 312 314 315 316 315 314 314 313 309 306 306 307 306 307 308 307 308 309 307 306 305 305 304 302 302 301 301 300 299 298 298 297 297 297 296 296
306 306 307 307 307 307 307 308 308 308 308 309 309 309 309 309 309 310 310 310 310 311 310 309 311 312 311 310 311 308 306 308 307 307 308 309 309 309 310 311 311 309 308 308 310 310 310 311 312 313 314 313 311 311 312 314 314 312 312 313 311 307 307 307 305 307 307 306 306 308 308 306 306 306 304 303 302 302 301 300 299 298 298 297 297 297 296 296
306 306 306 306 307 307 308 308 308 308 309 309 309 309 309 310 310 310 310 310 310 311 310 310 312 314 311 308 306 306 307 308 307 307 308 309 309 309 310 310 311 309 308 308 309 310 311 311 312 316 316 314 312 312 312 313 313 311 312 315 313 309 309 306 305 307 306 305 307 309 309 307 306 305 304 303 303 302 301 300 299 299 298 297 297 296 296 296
306 306 306 307 307 308 308 308 308 309 309 308 308 309 309 310 310 311 310 310 310 310 310 310 312 313 311 308 306 306 307 308 307 307 308 310 310 310 310 309 309 309 308 308 308 309 311 311 312 315 315 314 314 313 312 312 312 312 314 315 312 311 311 307 306 307 306 307 308 309 311 308 304 304 304 304 303 302 301 300 299 299 298 297 297 297 296 296
306 306 307 307 308 308 308 309 309 309 309 308 308 309 310 310 311 311 310 309 309 309 309 310 312 313 311 308 307 307 307 308 307 307 308 309 310 311 310 308 308 308 308 307 307 308 310 311 313 314 314 314 313 312 314 315 312 312 315 314 310 311 311 308 307 306 306 308 308 310 312 309 304 304 304 304 304 302 301 300 299 299 298 298 298 297 296 296
306 306 307 308 308 308 309 309 309 309 309 308 309 309 310 310 310 310 309 309 309 309 311 313 313 314 312 308 307 307 307 307 307 306 308 308 309 309 308 308 308 308 307 307 307 308 309 311 313 314 315 315 313 314 318 316 311 310 312 312 309 309 310 309 309 307 305 306 308 311 312 308 304 303 303 303 303 302 301 300 299 298 298 298 297 297 296 296
306 307 308 307 308 309 309 309 309 309 309 309 309 310 310 310 310 310 309 309 310 310 312 315 313 312 310 307 307 307 306 307 306 307 308 307 308 308 308 309 310 309 308 308 307 309 309 311 315 315 313 312 313 316 316 312 311 309 310 310 308 310 310 309 310 310 308 307 308 311 312 308 304 303 302 303 302 302 301 299 299 298 298 297 297 297 296 296
306 307 307 308 309 309 309 309 309 309 309 309 308 308 309 310 310 311 311 310 310 311 311 311 311 310 309 306 306 306 306 306 306 306 307 308 307 307 308 308 309 310 309 309 309 309 309 311 315 313 309 309 310 313 313 312 311 310 310 309 308 310 310 308 310 312 310 308 307 308 311 307 304 303 302 302 302 301 300 299 298 298 298 297 297 296 296 295
307 307 308 309 310 309 309 309 310 309 309 309 309 309 308 309 310 309 312 313 313 314 312 310 310 311 309 306 306 305 306 306 306 306 306 308 307 307 308 308 309 309 309 310 309 310 311 311 311 309 308 308 309 312 313 310 311 311 311 312 311 310 309 307 308 311 310 309 306 306 309 307 303 302 301 301 301 301 300 299 298 298 297 297 297 296 296 295
307 307 308 309 309 309 309 309 310 310 310 310 309 310 310 312 311 309 310 311 312 313 312 311 311 311 309 306 305 306 306 306 306 306 306 307 307 308 309 309 310 310 311 312 310 311 311 310 310 308 308 309 309 311 311 310 310 311 311 313 312 308 307 305 305 310 310 308 306 305 309 308 303 302 301 301 301 300 300 299 298 298 297 297 296 296 296 295
307 308 309 309 309 309 310 309 310 310 310 311 312 313 315 317 314 309 309 310 310 311 312 312 311 308 306 305 305 305 306 307 306 305 305 307 308 308 310 311 312 312 314 315 313 311 310 309 310 309 308 307 307 309 310 311 311 312 313 311 307 306 306 303 303 309 309 308 307 305 307 308 304 303 302 300 300 300 299 299 298 298 297 297 296 296 295 295
307 308 309 309 309 309 309 309 310 311 311 312 315 317 318 320 318 312 311 311 310 310 311 311 309 307 306 306 305 305 306 307 306 305 305 306 309 309 311 313 313 312 314 316 315 310 308 309 309 308 305 305 307 309 310 312 312 313 314 307 304 305 303 301 304 310 309 309 309 306 306 308 306 304 302 301 300 300 299 298 298 297 297 296 296 296 295 295
307 308 309 309 309 310 309 309 310 313 314 314 315 316 314 315 316 313 313 313 311 311 310 309 307 306 306 306 306 305 305 306 306 305 304 306 309 311 314 314 312 312 312 315 315 310 308 308 308 306 305 306 309 311 311 311 313 315 311 305 304 304 302 302 306 310 309 310 309 306 307 308 307 304 302 301 300 299 298 298 297 297 296 296 295 295 295 295
307 308 309 309 309 309 310 310 309 310 313 313 314 315 311 310 309 310 313 314 312 312 310 309 307 305 306 305 305 306 305 305 306 305 304 306 308 312 314 314 312 313 312 311 310 309 308 307 307 306 307 308 310 311 309 308 313 314 308 303 304 303 302 303 304 306 307 308 307 306 307 308 306 304 302 301 300 299 298 297 297 297 296 296 296 296 295 294
307 308 310 309 309 309 310 311 310 309 310 311 311 311 309 308 307 309 316 316 313 313 310 309 308 305 305 305 305 307 306 305 305 304 304 305 307 310 312 313 313 312 312 312 310 309 308 306 306 309 309 310 310 310 309 308 310 309 305 303 303 303 302 303 303 304 305 307 309 308 308 309 307 305 302 300 300 298 297 297 297 297 297 296 296 296 295 295
307 308 310 309 310 309 309 313 312 310 312 313 310 309 308 309 309 309 317 317 312 312 311 310 308 305 305 305 306 309 308 307 305 304 305 304 306 310 311 311 312 312 314 315 310 309 309 306 307 311 311 310 310 310 309 308 307 306 305 305 303 302 303 304 304 306 305 305 309 309 307 307 307 306 303 300 299 298 298 298 297 297 297 297 296 295 295 295
307 309 310 310 310 309 311 314 311 311 317 315 310 309 308 310 309 309 317 319 312 311 311 311 310 307 306 306 308 311 310 308 306 305 307 305 305 309 312 311 312 314 315 313 308 308 308 308 309 311 311 310 309 308 308 307 306 306 307 306 304 303 304 305 306 307 306 303 306 308 306 305 304 304 304 300 299 299 298 298 298 297 297 296 296 295 294 292
308 309 310 309 309 310 314 314 312 316 321 316 310 308 309 309 308 311 320 319 312 310 310 310 310 307 308 308 308 309 309 308 307 305 307 307 306 309 312 311 312 313 311 311 310 307 308 309 309 310 310 307 304 304 306 307 306 307 308 306 304 304 305 306 306 307 306 304 305 307 306 303 301 302 304 301 300 300 298 298 299 298 297 296 295 294 292 291
309 309 309 310 309 309 312 313 316 317 315 311 309 308 310 309 308 315 321 314 309 310 309 310 310 306 307 310 308 308 307 308 308 307 307 308 306 309 311 310 310 310 310 313 310 306 308 309 309 311 309 304 303 303 304 305 306 307 308 306 305 306 306 307 307 308 307 305 306 305 303 302 300 301 303 301 301 301 300 300 299 298 297 295 294 292 291 290
309 309 309 309 309 309 309 311 315 314 309 308 309 309 309 309 311 320 320 311 310 311 309 309 309 306 308 310 309 309 309 309 308 308 309 308 306 308 310 310 312 311 312 313 308 307 310 308 309 312 307 302 303 303 304 306 307 307 308 307 307 306 307 308 310 308 305 305 305 302 300 300 299 300 302 302 303 301 300 300 299 298 296 294 293 291 290 289
308 309 308 308 311 312 311 310 309 308 308 308 309 308 308 311 317 319 314 309 312 313 310 310 309 308 310 311 310 308 309 309 308 309 310 310 307 308 308 309 312 312 311 311 309 309 310 307 309 310 305 302 304 304 305 306 307 308 308 305 303 302 304 308 310 306 304 305 304 300 299 300 299 301 302 302 302 300 299 298 297 296 295 293 293 291 290 289
307 308 308 308 311 311 314 316 309 305 308 308 308 310 314 319 319 315 311 311 314 313 311 310 310 309 309 311 309 307 309 309 309 310 310 310 308 306 307 307 309 311 309 308 308 309 309 309 309 308 305 304 305 305 307 308 308 308 306 301 299 300 302 304 304 303 303 304 302 300 300 299 300 302 302 301 299 298 298 297 296 295 293 293 292 291 290 288
306 307 307 307 308 307 312 316 309 305 308 307 308 315 320 319 315 312 311 313 315 314 310 308 309 309 308 310 308 306 308 308 307 309 310 311 308 305 306 305 306 309 308 307 308 309 309 308 306 307 306 305 304 304 306 308 307 305 303 300 299 300 301 300 300 302 302 301 301 300 300 299 299 302 301 299 298 297 297 297 296 295 292 291 290 289 289 288
305 306 306 306 307 305 307 308 306 306 307 307 312 320 321 315 312 312 309 310 313 311 309 309 309 309 309 310 307 306 307 307 306 309 310 310 310 307 306 305 305 307 307 307 306 305 307 306 305 306 305 304 303 301 301 303 303 302 301 300 299 299 300 300 300 301 300 300 299 299 300 300 299 301 300 298 298 298 298 297 295 293 291 290 289 289 288 288
305 305 305 306 306 306 306 306 306 306 305 310 318 322 319 312 309 310 308 308 310 309 309 309 308 310 309 307 306 305 307 306 307 309 309 308 307 306 305 304 305 305 305 306 303 301 306 307 306 304 302 302 303 301 301 303 303 302 300 300 299 298 300 300 301 301 300 299 299 299 301 300 299 301 300 298 298 298 297 296 293 291 290 290 289 288 288 287
306 306 305 304 304 305 306 307 307 305 307 315 321 319 316 310 307 309 310 309 308 308 310 309 309 311 310 307 306 305 306 307 308 308 307 306 304 304 304 303 303 304 305 307 304 302 305 306 305 304 301 301 302 302 303 304 304 302 300 300 300 298 298 300 301 300 300 299 298 298 299 299 298 300 299 299 299 297 295 294 292 290 290 289 288 288 287 287
308 309 307 303 303 303 304 306 306 305 310 319 320 314 311 309 308 309 309 308 308 308 310 310 309 310 309 307 307 306 305 307 307 306 305 305 304 304 304 302 302 303 303 305 305 302 302 304 305 304 302 301 302 303 303 303 302 300 300 300 299 298 298 300 300 299 298 298 297 297 298 298 297 298 299 299 297 296 294 293 291 290 289 288 287 287 286 286
309 310 308 304 303 302 303 304 304 307 314 319 317 312 308 307 306 306 306 306 306 306 308 309 309 308 307 307 307 306 306 307 307 305 304 305 305 304 304 303 302 302 300 301 304 303 301 303 304 305 305 302 302 303 303 302 302 300 299 299 299 300 299 299 299 297 298 298 297 297 298 297 296 297 299 297 295 294 292 291 289 289 288 287 286 286 286 286
309 310 311 306 303 303 304 303 305 311 316 314 312 310 308 307 306 305 304 305 305 306 307 308 309 307 305 306 307 306 306 307 307 305 304 305 305 304 303 303 302 301 300 301 304 304 302 304 304 303 305 303 301 303 302 303 303 301 300 299 299 300 301 300 297 297 298 298 297 297 296 296 296 297 297 295 293 292 290 289 288 288 287 286 286 286 286 285
311 314 314 306 303 306 307 307 310 316 318 314 312 310 307 306 305 303 303 304 305 306 306 306 307 305 305 306 306 305 305 306 305 304 304 304 305 304 302 302 302 301 301 301 303 303 302 303 304 303 303 302 300 302 301 301 302 301 300 300 298 298 299 298 297 297 299 298 296 296 295 295 296 297 296 294 292 290 289 288 287 287 286 286 286 285 285 285
314 318 315 306 303 307 309 310 311 313 314 312 310 309 307 306 304 303 303 304 305 305 304 305 305 306 306 305 304 304 304 304 303 304 304 304 305 305 300 300 301 301 301 302 303 303 302 303 303 303 304 302 300 300 298 298 300 300 300 299 298 298 299 298 298 298 298 297 295 294 294 294 295 295 294 292 291 290 288 288 287 286 286 285 285 285 285 285
314 318 315 306 303 307 310 311 310 309 309 309 309 308 307 307 305 304 303 304 305 305 303 304 305 306 306 305 305 303 303 304 304 303 304 303 305 305 301 297 298 299 300 302 302 301 300 301 302 302 302 302 300 298 297 298 298 298 299 299 298 298 298 298 297 297 297 295 294 293 293 293 294 295 293 291 290 289 288 287 286 286 285 285 285 285 284 284
316 317 313 306 304 307 310 312 309 308 308 308 308 308 306 305 305 305 304 304 305 305 304 305 306 306 306 307 307 305 304 305 304 304 304 303 304 304 301 297 296 297 299 302 302 300 298 299 302 302 301 301 299 297 298 299 299 298 297 297 297 298 297 296 296 296 296 294 294 294 294 294 294 294 292 291 290 289 288 287 286 285 285 285 285 284 284 284
317 314 310 306 304 306 313 314 309 307 306 305 305 306 305 305 305 304 304 304 304 304 305 306 306 307 306 306 306 305 304 304 304 304 304 303 303 301 298 297 297 298 300 301 301 300 299 300 301 302 301 300 298 296 297 298 298 299 297 296 297 297 296 297 296 295 295 294 294 294 294 294 294 293 292 291 289 288 288 287 285 285 285 284 284 284 284 283
317 313 311 307 304 311 319 317 311 308 306 305 305 305 306 306 305 306 306 305 304 303 304 306 306 306 306 305 305 305 304 304 305 304 302 302 303 299 297 297 298 300 301 301 300 300 302 302 301 300 299 299 298 297 297 298 298 298 297 296 296 296 295 296 296 294 294 294 293 293 293 293 292 292 291 289 288 288 287 286 285 285 284 284 284 284 283 283
316 315 313 308 305 311 318 314 310 309 307 307 307 306 307 306 304 305 306 304 303 302 303 305 305 304 304 305 305 305 304 303 303 302 300 300 303 299 297 296 297 300 299 298 298 298 302 304 300 299 298 297 297 297 297 297 296 296 297 295 295 295 295 296 295 294 294 293 292 292 292 291 291 291 290 288 288 287 286 285 285 284 284 284 283 283 283 283
318 317 316 313 308 308 312 311 309 309 307 309 308 305 306 306 305 305 306 305 304 303 303 304 303 303 304 305 307 306 305 304 302 301 300 301 301 300 298 297 298 298 297 296 296 297 301 303 300 298 298 298 298 297 296 296 296 295 297 298 296 295 295 295 295 294 293 292 292 291 291 291 290 289 288 288 287 286 285 284 284 284 283 283 283 283 283 282
319 317 313 315 313 310 310 311 310 310 310 310 308 305 306 307 305 305 306 306 305 304 304 304 304 305 305 305 306 305 305 305 302 300 300 301 300 299 299 299 299 298 297 297 297 297 298 301 300 298 298 298 297 295 295 295 295 295 296 298 297 295 295 295 295 293 293 293 292 291 290 290 289 288 287 287 286 285 284 284 284 283 283 283 283 283 283 282
314 313 308 309 314 313 311 312 312 312 311 309 307 306 307 306 305 307 307 306 304 304 305 306 306 305 304 304 305 306 305 304 304 303 302 301 300 300 300 300 300 299 298 298 297 295 295 299 299 297 297 297 295 294 295 295 295 295 295 295 295 295 295 295 295 293 293 293 292 290 289 288 287 287 287 286 285 284 284 284 283 283 283 282 282 282 282 281
310 310 306 306 309 307 305 308 312 313 311 308 307 307 307 306 308 309 307 306 306 303 303 306 307 305 303 304 304 304 304 302 303 305 303 301 302 301 301 302 301 300 299 297 296 294 296 300 299 297 297 296 295 297 297 296 295 295 294 294 294 295 295 295 294 293 292 291 290 288 287 286 286 286 286 285 285 284 284 283 283 282 282 282 282 282 281 280
312 312 308 308 308 303 301 304 310 313 312 309 309 308 307 307 309 308 305 306 308 306 305 307 308 305 305 306 304 303 304 303 303 304 301 300 301 301 301 301 300 299 298 298 298 296 296 300 299 297 297 296 296 298 297 295 294 293 292 293 293 294 294 293 292 290 289 288 287 286 286 286 286 286 285 284 284 284 283 282 282 282 282 282 281 281 280 279
309 308 307 311 310 304 304 305 307 312 313 310 310 309 307 308 308 307 306 305 306 308 307 307 307 306 306 306 304 304 305 303 303 303 301 299 299 299 300 299 299 300 300 299 300 299 297 298 298 297 296 296 295 296 294 293 294 294 293 293 293 294 293 290 289 288 287 287 286 286 286 286 286 285 284 284 283 283 282 282 282 282 282 282 281 280 279 279
306 306 309 315 311 304 305 307 308 313 313 309 309 309 309 308 306 306 308 305 303 305 305 305 306 306 305 306 306 305 302 300 300 300 299 299 299 298 299 298 298 300 301 300 299 298 296 297 298 296 295 295 294 294 293 292 295 297 296 293 292 291 289 287 287 286 286 286 286 286 285 285 285 284 283 283 283 282 282 282 281 282 281 281 280 279 279 279
Wind_Speed
5 6 5 5 4 4 5 5 6 6 7 8 9 9 8 5 4 4 5 5 6 8 8 8 10 11 9 5 3 4 5 5 6 16 12 13 23 22 18 15 14 13 10 10 10 12 10 8 6 4 5 4 1 1 1 1 1 1 2 3 2 3 4 4 4 4 3 4 6 6 6 5 5 6 3 3 9 12 11 11 11 12 14 15 16 19 22 24
5 5 5 5 4 4 5 5 5 6 8 9 10 10 7 4 3 3 4 5 7 9 9 10 12 11 8 4 4 5 7 8 6 15 11 21 26 18 13 13 12 11 9 9 9 11 9 4 2 2 5 2 2 1 1 0 1 2 3 1 2 3 3 4 5 4 4 5 6 6 6 6 5 5 5 5 9 11 11 10 9 11 13 14 17 19 21 24
6 5 5 4 3 4 5 5 5 7 9 10 10 9 7 4 3 3 3 6 8 9 10 12 13 11 7 5 5 6 6 8 7 12 16 25 20 12 12 12 12 11 9 8 9 10 9 7 5 4 4 1 2 1 1 1 1 1 2 2 3 2 3 5 6 5 5 5 6 6 4 6 7 6 4 7 12 12 10 7 7 9 10 11 13 16 19 21
6 5 5 4 4 4 4 4 5 7 9 10 9 8 6 5 3 3 4 7 9 10 11 12 11 10 8 4 5 4 4 4 5 11 22 23 14 11 12 13 14 12 9 6 8 10 8 8 6 4 3 0 2 0 1 1 1 2 2 3 3 3 3 6 6 6 6 5 5 5 2 6 9 9 6 7 10 9 7 6 7 8 9 9 10 13 17 19
6 5 4 4 4 4 4 4 6 8 9 10 8 7 6 5 3 3 5 7 9 10 12 11 7 8 10 3 6 4 2 1 5 15 24 19 12 12 13 15 14 12 11 6 6 9 8 7 5 2 1 1 1 0 2 3 1 2 3 4 4 4 4 6 6 6 6 5 4 4 4 7 8 9 10 10 9 5 5 7 7 8 9 9 9 11 14 16
6 5 4 4 4 3 4 5 7 8 9 9 7 6 5 4 4 4 6 8 8 10 12 9 4 5 11 8 5 2 0 1 8 18 22 16 12 13 13 15 15 14 12 8 7 8 6 5 4 1 0 2 3 2 3 3 1 1 3 4 5 6 5 5 5 5 5 5 5 4 4 7 9 9 9 11 10 7 7 7 7 8 10 11 11 11 11 12
5 4 4 3 3 3 4 6 8 9 9 8 5 6 6 5 4 5 7 7 7 8 11 11 7 4 5 6 2 2 4 5 12 19 20 15 12 14 15 14 15 14 11 9 9 5 4 4 1 2 2 3 3 3 2 2 2 1 3 4 4 5 5 5 4 3 3 3 3 1 1 6 10 8 8 11 10 9 9 8 9 10 11 11 10 10 10 11
5 4 4 3 3 3 5 7 8 9 8 7 6 7 6 5 5 6 7 7 7 7 8 11 10 6 5 5 4 2 7 8 15 19 19 15 12 15 15 12 14 13 10 11 12 8 5 5 4 3 2 2 2 3 2 3 3 4 4 3 2 3 4 3 2 1 2 2 0 1 5 8 11 9 8 11 10 9 9 9 9 9 10 9 8 9 9 11
5 4 3 2 3 4 6 8 8 8 8 7 8 7 6 5 5 6 6 6 8 8 8 10 9 8 7 5 4 1 6 10 14 16 17 15 12 13 12 12 16 13 11 12 13 11 6 4 6 4 4 4 3 2 2 3 2 4 3 2 2 2 2 1 2 2 1 2 2 4 9 9 11 10 8 9 9 9 9 8 8 7 7 7 7 8 8 9
4 3 2 2 3 6 8 8 8 8 8 8 8 7 5 5 5 5 6 7 8 8 8 9 7 9 10 4 1 3 7 11 12 15 15 14 11 10 11 15 18 14 12 12 13 13 8 6 7 5 4 3 4 4 4 2 1 2 2 1 1 2 0 1 3 4 1 3 5 3 9 7 6 5 4 7 8 8 8 7 7 7 7 7 6 6 8 9
4 3 3 3 5 7 8 8 8 8 8 8 8 6 6 5 5 4 4 7 8 7 8 9 6 9 15 12 6 4 9 11 11 16 14 11 11 11 12 15 17 15 14 12 13 12 10 8 7 4 2 1 3 3 3 1 2 0 1 2 0 1 1 1 4 3 2 2 5 1 7 5 4 4 5 7 7 7 7 7 7 6 6 6 7 6 7 9
4 3 4 5 7 8 8 8 7 7 7 8 8 7 6 4 4 3 4 7 8 6 6 9 9 8 11 12 8 5 9 9 11 15 12 9 10 10 11 12 13 14 13 11 11 11 10 8 5 4 2 2 0 2 2 1 3 2 2 2 3 4 1 1 3 3 4 2 3 1 4 4 4 4 6 7 7 7 6 6 6 5 5 5 6 5 5 8
4 4 5 6 7 7 8 7 6 7 8 9 9 6 4 3 2 3 5 7 7 4 4 6 8 8 8 6 5 9 9 8 12 15 13 10 7 5 9 11 11 11 11 10 9 10 11 10 6 5 1 2 1 2 1 1 2 1 3 3 2 3 2 2 4 3 5 2 1 2 1 2 4 4 5 6 7 6 5 5 4 4 4 4 4 4 4 7
4 5 6 6 7 7 7 6 7 9 10 12 9 4 3 3 2 4 7 7 6 5 3 3 5 4 7 4 3 12 14 10 13 16 15 14 9 4 7 9 10 10 9 8 8 9 10 8 5 3 1 3 3 1 1 2 2 2 1 2 2 1 0 3 3 4 4 2 3 4 2 3 5 4 3 4 5 6 4 4 4 3 3 3 3 4 4 6
5 5 6 6 6 6 6 6 7 9 11 13 9 6 5 3 3 5 7 8 9 9 6 5 8 4 3 3 2 12 17 13 15 17 15 15 12 7 7 8 8 8 8 7 6 7 7 5 1 1 2 2 2 1 2 2 1 4 3 1 4 4 2 1 3 4 4 1 2 3 2 2 5 4 3 3 3 4 4 4 4 3 3 3 3 3 4 4
5 5 5 6 6 6 5 6 6 7 10 14 16 13 7 5 4 4 6 7 11 15 11 8 11 6 3 2 3 11 16 14 15 16 13 13 11 9 10 10 7 4 3 4 3 2 4 3 0 1 3 2 1 2 1 3 3 5 4 2 5 5 5 2 2 3 4 3 3 3 3 1 4 5 4 3 4 4 4 4 4 3 3 3 3 3 3 4
5 5 5 5 6 5 4 4 4 6 8 13 22 24 19 14 8 5 3 3 5 10 13 13 11 4 5 5 5 9 13 13 14 16 14 12 9 8 10 8 5 4 4 5 4 4 4 1 1 1 5 6 5 3 4 5 4 4 5 3 4 4 5 5 2 1 5 3 2 5 4 2 4 6 4 4 4 4 4 4 4 3 3 3 3 3 3 3
4 4 4 5 5 5 3 2 3 4 4 6 13 19 22 24 23 19 13 7 4 2 6 15 12 4 3 9 7 9 13 12 13 15 14 10 7 8 9 6 6 7 6 3 3 4 2 1 2 3 6 7 7 6 4 3 4 4 5 3 3 5 5 6 5 3 5 5 4 6 5 4 5 6 5 4 4 4 4 4 3 3 3 3 3 3 3 4
4 3 3 5 6 6 5 4 5 4 3 2 1 3 5 10 18 24 24 19 10 3 2 8 8 3 1 7 8 12 14 11 9 14 15 12 10 11 10 9 7 4 1 0 4 6 3 3 4 4 5 7 6 6 4 2 4 5 5 3 4 6 5 7 8 3 3 5 6 7 4 5 7 6 6 5 5 4 4 3 3 2 3 3 3 3 4 4
3 3 3 5 7 8 8 7 7 5 3 3 3 5 4 1 4 9 15 17 10 6 4 2 5 4 2 5 9 14 11 7 6 13 19 18 13 11 8 6 4 3 3 0 3 4 4 6 5 4 4 6 5 5 4 4 5 5 5 5 5 6 5 9 10 2 2 3 5 7 6 4 7 7 7 6 5 4 4 4 3 2 2 3 3 3 4 4
2 2 3 5 7 9 11 10 10 7 5 4 2 2 2 1 2 2 3 7 6 5 6 3 4 4 1 3 9 14 6 3 9 15 23 21 9 5 6 4 1 2 3 0 1 3 6 7 5 5 5 5 4 3 3 3 4 5 5 4 5 5 6 12 10 2 2 2 5 8 8 6 6 7 7 6 5 5 4 4 3 3 2 3 3 3 3 3
1 1 3 4 6 9 11 11 10 9 9 9 6 4 3 3 5 5 2 4 3 4 4 6 7 6 2 1 9 13 3 3 9 14 25 23 8 3 5 4 5 4 5 2 0 3 6 6 5 5 4 4 4 4 4 4 5 5 5 3 4 5 7 10 5 2 2 1 5 9 7 6 4 6 6 6 5 3 3 3 3 3 2 3 3 3 3 4
1 1 2 3 4 7 10 11 10 8 10 10 9 6 4 5 6 5 1 3 2 2 1 4 5 6 6 3 10 14 5 5 7 10 21 19 6 4 5 4 6 5 7 7 5 4 4 3 5 4 3 4 4 2 5 6 4 3 2 3 4 6 7 6 5 7 7 6 9 9 6 6 1 4 5 5 4 4 4 3 3 2 1 1 2 2 3 5
1 1 2 2 2 4 7 9 10 10 11 10 10 7 5 4 4 1 2 1 2 0 1 1 2 4 5 3 8 10 4 5 5 8 16 13 5 3 2 3 4 4 5 5 7 7 3 1 4 4 4 4 4 2 7 6 4 1 3 4 5 9 8 8 9 10 10 9 7 4 5 4 4 5 5 4 4 4 4 4 4 3 3 2 1 2 3 4
1 2 2 2 1 2 4 5 7 8 8 7 6 5 3 2 2 2 1 1 1 1 1 0 0 3 4 4 8 5 1 2 4 7 11 9 5 3 1 1 1 3 4 4 5 6 3 1 2 5 4 4 4 3 5 4 5 2 1 5 9 12 12 12 11 8 6 5 1 2 3 3 4 6 6 6 4 5 5 4 5 3 1 1 2 4 4 5
2 2 2 2 2 3 3 2 5 4 4 4 2 2 1 0 1 1 0 1 1 2 1 2 2 6 7 8 9 1 3 2 3 8 11 7 3 2 0 2 1 3 2 3 3 2 1 0 2 5 5 4 3 3 3 3 4 4 3 8 12 13 13 13 10 5 3 5 3 3 2 4 2 3 4 8 5 5 5 4 4 2 1 3 4 4 5 7
2 3 2 3 4 5 2 1 4 3 1 1 1 2 2 0 2 2 1 1 2 3 4 4 4 7 8 9 9 2 3 5 4 7 11 9 5 3 0 4 1 2 1 2 1 1 2 2 4 6 4 4 5 3 3 3 1 4 5 10 13 14 14 13 8 4 4 7 6 2 1 4 4 3 5 8 6 6 6 5 4 2 4 5 4 5 6 8
3 2 2 3 4 5 4 2 2 2 1 1 1 1 3 2 2 1 1 1 2 3 1 2 3 6 7 9 8 5 2 5 3 5 10 10 6 1 1 4 2 1 0 2 0 1 1 3 4 6 4 4 3 4 3 2 1 5 6 9 12 14 15 13 7 5 4 5 4 1 3 4 5 3 5 6 4 5 4 3 3 3 4 4 5 6 7 9
2 2 2 2 2 3 3 2 0 2 1 1 2 1 2 2 0 1 1 1 2 1 1 2 3 5 8 6 5 6 1 2 2 6 8 6 9 4 2 2 4 4 1 1 1 1 1 3 3 2 3 2 4 5 3 2 4 6 8 10 11 12 13 9 5 4 3 2 3 3 6 4 6 6 2 2 1 2 1 2 3 4 5 5 5 6 8 9
1 1 0 2 1 1 3 2 1 3 2 2 2 2 1 1 0 1 1 1 2 1 1 3 3 4 8 5 4 7 6 4 3 5 4 3 8 8 2 0 3 3 2 3 4 2 2 2 1 1 1 2 5 6 4 5 6 5 7 9 9 9 8 3 4 3 1 3 3 6 11 7 6 4 2 1 1 2 1 3 3 4 4 5 4 5 7 8
2 2 2 3 2 2 2 0 2 3 2 1 0 1 1 1 1 1 0 1 2 3 1 3 3 3 7 5 3 7 7 5 5 6 5 3 7 10 6 3 4 2 2 3 3 2 1 0 0 0 1 3 4 5 2 5 5 3 4 7 7 6 5 1 0 1 2 4 4 9 12 8 5 2 2 1 4 4 2 1 3 4 4 5 5 6 7 8
4 4 4 4 3 2 1 2 2 2 1 1 1 1 1 0 2 1 1 1 2 3 1 1 3 4 6 4 3 7 5 4 6 6 5 4 5 7 7 6 5 3 2 3 2 1 1 1 0 1 2 2 3 4 2 1 3 3 3 6 7 5 4 3 3 2 3 4 3 9 11 7 3 1 1 3 4 4 3 3 4 3 5 7 8 8 8 9
7 6 5 5 3 1 1 1 1 1 0 2 1 1 1 1 2 1 1 2 1 1 0 1 4 5 6 4 4 5 2 1 5 6 5 3 4 4 6 8 7 3 0 4 5 3 1 1 1 1 2 2 3 3 2 2 4 4 4 4 4 4 5 5 4 3 5 7 6 8 8 5 4 2 2 3 4 5 5 6 3 4 8 9 9 10 10 10
11 10 8 8 7 6 4 1 1 0 1 2 1 1 4 3 1 1 2 3 1 1 0 0 4 5 2 2 2 3 2 0 3 5 5 4 4 3 3 7 9 4 2 3 2 2 2 2 2 1 1 3 3 2 0 2 3 3 2 4 2 3 2 3 3 3 7 9 10 8 4 2 5 2 3 3 4 5 4 3 5 10 11 11 11 11 11 11
11 13 13 13 13 10 6 2 2 1 1 1 1 2 5 3 1 2 2 2 1 3 2 1 3 4 1 2 1 1 1 0 3 4 4 3 2 2 2 4 6 5 2 2 1 1 3 3 1 1 2 2 2 2 1 1 2 3 2 4 1 2 1 3 5 5 7 9 8 5 3 2 3 1 2 2 4 4 6 8 12 13 12 12 11 11 12 12
7 10 13 15 17 14 7 2 2 1 1 2 2 5 3 1 2 3 1 1 1 3 4 1 1 3 1 1 0 0 1 2 2 2 2 2 1 1 1 0 3 4 3 1 2 1 3 3 3 1 3 2 1 1 1 1 1 2 3 2 4 4 3 2 6 5 6 7 5 4 5 5 5 2 3 3 6 10 10 11 14 15 15 13 12 13 14 14
4 4 7 14 19 16 8 3 2 1 1 2 4 4 2 1 1 2 1 1 0 1 3 2 1 1 2 1 1 3 3 1 1 1 1 2 1 1 2 1 1 3 3 2 1 1 0 5 5 3 0 1 2 2 1 1 2 1 0 2 5 3 2 1 4 4 4 6 5 6 8 7 7 4 2 4 11 11 11 14 17 17 15 14 13 15 16 15
4 2 3 15 20 14 7 5 4 2 0 5 6 3 1 1 1 2 1 1 1 1 2 2 0 0 1 2 2 4 5 3 3 3 1 0 1 1 2 1 2 2 2 2 0 0 1 3 4 2 2 1 2 1 1 3 4 2 4 1 1 1 1 2 2 3 5 6 6 10 11 7 6 4 4 10 11 11 15 18 18 18 16 14 15 17 18 17
5 2 1 15 18 11 9 7 5 3 2 5 5 2 2 2 1 2 2 2 1 1 1 1 0 0 1 2 2 3 3 2 4 4 2 1 2 1 1 1 1 2 3 1 1 2 1 1 3 2 1 2 2 0 1 1 3 3 4 1 2 1 2 2 1 1 3 5 7 11 12 6 3 4 8 9 10 13 17 17 16 16 15 15 17 16 16 16
4 2 2 15 13 7 11 10 6 5 5 5 3 2 1 1 2 1 2 2 1 0 2 1 2 2 2 2 1 1 2 1 2 3 2 2 2 2 4 3 2 4 5 2 2 3 2 2 4 4 5 2 1 1 1 2 1 1 1 1 2 1 1 2 2 1 1 3 5 10 12 6 2 5 7 8 11 14 16 16 15 14 16 17 18 16 16 15
3 1 3 14 10 4 8 9 7 5 4 4 3 3 2 0 1 1 1 3 1 1 2 1 2 2 2 2 1 0 2 3 2 2 2 2 2 2 2 2 2 3 4 2 1 2 2 3 4 4 6 4 1 0 3 1 3 2 1 1 2 1 1 2 3 1 2 1 3 7 12 10 5 3 4 8 12 14 15 16 14 15 19 20 17 17 17 16
2 1 4 13 10 6 7 7 4 4 4 3 2 2 1 0 1 0 0 1 1 0 1 1 1 2 2 2 2 2 2 3 3 2 1 1 2 2 1 1 2 1 2 1 2 2 2 2 3 5 5 2 2 1 3 3 4 4 2 2 2 2 1 0 4 2 1 3 4 6 11 12 5 2 6 10 12 14 15 13 13 17 20 19 19 19 18 18
2 1 5 15 11 4 6 6 3 4 4 1 1 1 1 1 1 0 0 1 1 1 1 1 1 2 2 2 2 2 2 2 2 1 1 2 2 1 1 1 2 1 1 1 1 2 1 2 3 5 4 0 2 2 3 4 4 3 1 1 2 2 2 3 3 2 2 3 5 6 10 11 5 5 8 11 14 16 14 12 16 19 18 18 20 19 17 18
2 2 3 16 13 3 4 4 3 3 3 2 2 2 1 2 3 1 1 3 2 1 2 1 1 1 1 1 1 2 1 1 1 1 0 2 1 1 1 1 1 1 1 1 1 2 1 1 3 5 4 3 3 3 3 2 2 0 2 1 2 2 2 3 2 1 1 4 4 6 11 11 9 10 12 13 15 16 13 13 18 18 17 18 19 18 17 18
1 1 1 13 18 10 4 1 3 5 3 3 3 2 1 2 2 1 2 2 1 1 1 0 0 1 1 1 1 3 1 1 0 0 0 1 1 2 1 1 1 1 2 1 1 1 1 2 3 3 3 4 5 5 5 5 4 2 2 4 3 4 4 2 2 2 3 6 6 7 11 15 17 19 18 17 17 15 15 18 19 17 17 18 18 17 18 18
1 2 2 6 11 9 4 2 4 5 4 3 3 2 2 2 2 0 1 1 1 1 1 1 1 1 1 1 2 3 2 4 2 1 2 1 0 1 2 3 2 0 2 1 1 1 1 3 3 3 4 4 5 8 9 7 6 7 5 4 6 5 3 1 0 3 5 8 9 9 11 18 23 22 20 19 17 15 16 20 20 17 18 19 18 19 19 19
2 2 1 1 3 4 4 4 5 3 2 1 1 1 2 2 2 1 1 1 0 0 1 1 1 0 1 2 2 3 2 1 2 0 1 2 1 1 3 4 3 3 4 2 2 1 1 3 2 2 4 6 8 12 13 10 8 11 10 4 5 6 4 4 3 5 5 6 9 11 13 19 22 22 23 19 15 16 19 20 19 19 19 19 19 21 21 20
2 2 1 0 1 2 2 3 3 4 4 2 1 1 1 2 1 1 1 0 1 1 0 0 1 1 2 2 2 2 5 4 1 1 0 2 2 1 3 3 3 5 5 3 2 2 0 3 1 1 5 9 12 14 13 9 9 10 10 8 4 6 7 5 6 7 4 5 11 17 20 21 21 21 21 17 16 18 20 19 19 20 20 20 21 21 20 20
3 3 0 0 2 2 0 2 2 3 4 3 2 1 1 2 1 0 0 1 1 1 0 1 2 3 2 2 2 2 3 3 2 2 0 1 2 2 2 2 2 4 4 2 1 2 1 2 2 1 6 10 13 13 9 7 9 9 9 8 4 5 8 7 8 8 7 10 14 19 23 22 19 17 16 16 17 18 17 18 19 21 22 22 21 20 20 22
1 3 2 2 4 2 0 1 2 1 1 1 1 1 1 2 2 1 0 1 1 0 1 2 3 3 2 2 3 2 1 0 3 5 2 1 2 2 1 1 1 2 3 1 0 1 1 1 1 1 4 9 10 8 6 7 8 8 10 7 3 4 6 5 5 6 8 12 16 19 20 18 12 11 13 16 17 16 17 20 20 20 22 22 21 22 23 23
4 4 4 5 4 2 1 1 1 1 1 1 2 0 1 2 2 0 1 1 1 1 1 2 4 4 2 2 4 2 1 1 4 5 2 1 2 1 1 1 1 1 2 2 0 1 1 1 2 1 3 7 6 6 10 12 7 5 8 7 4 4 3 2 3 5 8 14 19 18 14 12 9 10 14 16 17 19 20 21 21 20 20 20 20 22 23 23
6 4 2 4 4 1 2 1 1 2 1 1 2 1 0 2 1 1 1 0 1 2 2 2 3 3 2 2 3 1 1 3 4 3 2 3 3 0 1 1 1 1 1 2 1 1 1 1 2 2 2 6 6 8 11 12 7 4 5 3 2 1 4 4 5 9 12 13 13 12 11 10 11 13 16 18 19 20 20 18 19 20 19 18 19 21 22 22
Wind_Direction
124 131 123 107 89 62 48 47 45 42 36 26 17 12 10 9 14 31 30 20 9 357 350 343 338 337 326 304 278 250 279 296 46 54 52 8 347 340 335 332 333 334 331 325 321 314 293 253 232 225 244 240 231 45 139 229 353 299 251 243 295 30 52 29 19 28 338 333 353 4 35 22 11 9 345 79 70 68 63 57 58 59 57 52 45 37 35 32
128 128 114 100 82 53 45 45 42 34 28 20 12 7 6 10 14 25 17 6 1 353 352 343 336 341 330 301 248 242 278 291 27 56 30 352 347 342 340 342 344 340 331 328 331 330 326 331 350 249 240 215 101 91 174 113 298 262 275 295 35 48 60 37 25 27 355 350 347 351 42 43 25 353 334 60 66 60 60 51 52 58 54 51 44 40 40 38
128 122 108 96 72 48 44 41 33 28 23 15 10 8 12 24 26 23 10 359 357 354 359 349 340 347 334 297 236 235 281 301 16 41 3 350 349 353 355 352 353 348 335 326 324 321 326 334 323 287 256 202 82 186 181 36 305 284 321 17 47 63 85 48 25 29 12 359 343 340 49 65 44 3 336 95 78 56 59 48 47 55 51 52 46 43 43 43
124 115 105 88 62 47 41 32 26 24 18 10 7 12 23 37 37 24 7 358 358 359 2 353 346 353 343 301 222 226 281 303 23 11 351 352 360 6 4 2 4 4 357 330 310 304 302 301 287 281 283 53 70 196 103 65 334 351 20 41 22 4 60 46 31 35 11 348 338 331 54 88 65 30 13 93 86 62 66 57 54 62 56 55 52 48 47 48
120 109 100 74 56 49 35 22 22 19 11 6 8 19 33 41 36 25 9 360 2 4 4 358 354 12 14 36 168 177 257 278 17 355 347 355 10 7 5 8 11 10 2 347 308 291 277 282 282 289 272 82 67 218 35 39 2 10 44 46 21 3 36 42 35 42 5 334 347 12 61 80 73 49 37 68 85 83 82 73 68 68 63 59 56 54 53 52
116 104 85 65 56 47 26 15 19 14 6 3 10 23 29 33 27 20 6 4 10 9 12 11 353 16 30 58 143 196 259 69 5 348 346 357 10 7 7 6 7 4 352 332 305 288 274 260 231 275 59 78 38 53 44 41 23 8 68 56 34 26 44 40 29 43 360 347 31 52 72 84 84 74 61 71 87 96 93 88 80 75 73 70 64 59 57 55
113 96 73 63 56 39 13 14 17 9 3 4 15 23 23 29 22 13 3 4 9 3 14 20 8 345 3 26 16 351 58 42 355 346 345 358 9 7 8 4 359 356 354 349 335 325 321 310 198 343 41 91 43 51 20 2 35 45 95 77 43 38 53 49 37 41 337 356 48 49 158 100 92 93 90 91 101 108 105 102 94 86 80 74 71 63 59 58
103 84 71 66 53 26 11 16 14 5 4 9 16 20 22 25 9 3 3 4 5 353 353 3 9 356 317 327 319 37 57 9 344 346 346 358 11 4 4 5 352 347 15 18 356 354 333 347 34 353 36 89 35 69 356 337 28 42 81 91 56 53 70 82 121 103 317 286 204 114 94 88 97 102 103 109 118 120 117 115 106 97 86 76 71 66 63 60
90 78 75 71 44 18 15 16 11 6 10 13 16 19 20 12 354 358 3 2 3 356 348 351 359 352 325 288 259 48 26 346 340 345 347 360 13 5 6 11 352 350 31 30 10 13 355 5 31 21 73 63 16 53 349 349 29 27 54 101 103 95 76 106 142 103 347 312 333 107 104 107 121 114 102 115 124 125 122 117 109 101 93 80 73 70 66 64
88 89 87 65 26 18 17 13 9 9 10 9 9 9 2 349 345 356 4 9 6 1 7 9 2 359 358 334 215 75 359 338 344 347 349 2 12 14 20 15 0 5 34 33 28 25 14 14 7 8 64 63 49 30 354 8 317 8 50 5 101 112 113 200 96 92 191 5 2 113 124 122 133 120 105 125 130 130 124 115 110 100 94 86 82 74 66 66
93 95 72 37 23 19 15 11 10 9 7 5 2 356 348 343 351 3 8 11 11 13 25 33 26 27 40 46 64 58 348 341 351 349 352 0 9 19 18 10 8 20 32 35 38 28 18 8 346 350 10 356 67 51 43 117 239 91 105 313 200 168 280 199 96 107 185 26 353 66 113 91 64 76 116 141 139 130 124 113 110 100 97 92 86 81 68 66
89 76 46 29 23 16 12 11 10 12 14 12 1 347 343 352 6 19 18 9 6 16 45 54 43 28 50 58 54 25 345 352 359 353 358 355 354 11 12 10 18 28 32 36 36 26 19 1 347 36 12 304 122 112 75 170 226 143 179 235 186 197 249 59 55 99 140 48 334 53 104 92 67 96 128 143 140 131 131 119 113 104 101 101 93 88 73 64
80 57 36 27 19 13 11 13 23 32 32 17 357 341 355 31 47 26 9 1 2 26 82 67 42 35 54 69 52 26 10 11 7 0 9 5 346 7 18 19 27 30 33 36 28 21 23 20 39 73 357 332 99 152 32 258 231 196 206 207 175 205 202 102 16 43 123 141 218 116 140 149 104 120 134 142 151 142 135 122 121 114 104 103 98 93 81 67
67 45 31 21 15 13 15 33 55 50 34 14 356 357 62 89 62 23 14 15 28 40 63 34 3 22 56 84 76 28 17 18 15 7 10 12 5 22 31 28 28 30 33 32 23 22 23 23 61 100 20 29 75 172 249 191 215 324 185 176 39 29 266 114 43 26 95 184 200 140 200 197 137 140 133 137 156 146 136 125 116 114 111 103 93 88 85 72
53 38 25 16 16 19 37 69 71 53 34 23 28 59 86 91 39 27 39 55 56 33 20 16 352 337 69 98 78 16 12 14 14 7 4 7 10 16 13 2 1 14 25 26 31 30 7 349 28 91 27 66 103 196 233 164 120 16 38 14 12 19 325 115 99 42 62 337 279 155 189 184 152 156 145 142 157 145 135 129 117 108 107 95 85 80 73 68
45 33 19 15 23 38 69 89 70 49 40 44 61 67 64 61 33 34 57 67 54 38 33 9 346 352 80 60 340 360 11 12 5 4 2 2 8 4 340 319 306 308 337 336 337 314 306 322 75 34 29 45 298 256 143 56 36 20 22 355 3 4 329 322 135 57 42 28 337 257 221 167 159 160 152 159 167 155 139 136 130 113 101 88 78 68 61 63
39 26 20 22 38 63 93 93 54 46 51 63 71 69 65 62 57 55 38 17 30 43 49 21 360 56 80 19 349 352 358 356 357 5 1 348 350 353 340 324 302 281 265 278 283 257 246 237 151 59 33 30 353 348 76 42 355 358 7 353 355 344 322 315 253 23 11 30 351 271 233 147 142 152 158 169 168 165 152 145 137 120 112 96 78 60 53 50
34 24 29 38 53 70 73 29 356 21 51 77 77 71 65 61 61 59 48 39 15 3 44 19 13 109 68 12 6 339 332 333 350 1 356 341 336 335 322 294 279 276 255 255 338 330 304 4 39 61 31 25 20 19 61 50 333 343 350 334 331 323 310 312 309 341 355 351 324 282 232 166 148 156 161 169 178 176 158 147 145 131 114 96 72 58 43 32
31 28 46 57 64 60 36 7 338 326 304 263 344 5 26 52 58 53 46 52 53 25 41 2 6 105 28 357 350 331 319 307 334 1 360 352 336 321 299 267 268 306 314 108 25 5 5 33 24 41 21 9 26 26 31 9 325 325 317 288 292 310 303 307 315 336 16 339 304 291 264 177 164 174 170 169 179 169 160 156 152 134 103 85 58 47 27 18
34 47 73 73 69 54 35 25 8 348 312 294 288 294 288 269 53 39 35 48 58 60 87 336 357 70 31 343 343 342 327 297 359 15 4 351 326 312 308 275 259 31 51 20 23 16 36 62 44 25 10 357 11 15 360 327 305 299 292 288 299 307 303 307 312 316 65 351 286 295 296 207 174 183 175 164 172 170 174 169 141 111 82 65 45 35 17 12
48 73 92 81 68 50 38 34 29 38 47 32 355 313 321 356 55 87 34 56 56 39 74 39 15 68 8 310 342 349 334 324 21 17 5 357 333 295 328 340 347 39 47 161 100 46 47 61 45 14 7 349 340 320 310 289 279 280 275 292 312 315 309 304 305 304 78 45 281 292 286 236 191 180 168 158 177 180 169 156 126 94 71 54 38 23 6 3
59 98 104 82 64 50 42 41 42 58 69 65 67 67 69 73 106 141 171 89 63 347 53 48 36 55 16 298 350 350 333 341 7 12 3 359 11 26 333 1 49 26 17 29 108 58 56 52 21 7 359 329 291 264 290 284 250 255 274 312 314 323 320 299 301 347 9 91 273 288 288 264 199 164 168 170 179 156 112 106 92 75 50 29 16 5 351 350
74 105 102 83 65 51 44 47 51 63 69 71 74 77 96 103 124 153 269 96 109 312 47 39 34 35 13 27 3 357 29 26 355 1 358 354 12 21 334 11 52 39 27 35 48 54 61 44 9 347 308 308 291 287 356 330 266 241 321 358 311 327 336 299 313 329 308 281 271 278 291 286 194 149 176 174 157 125 120 119 105 111 116 61 338 325 352 348
51 93 92 76 65 44 38 44 48 60 66 74 82 89 118 124 138 175 319 112 111 78 123 29 58 44 15 10 350 349 46 41 357 353 357 360 357 324 330 21 31 48 37 40 76 83 74 45 348 309 262 276 286 9 31 355 325 18 43 20 320 322 320 287 299 316 305 288 265 259 292 274 185 189 197 153 132 135 151 167 163 176 168 150 284 323 7 348
42 95 85 50 52 12 20 35 38 57 67 66 79 96 119 147 226 308 341 176 59 58 153 142 174 29 3 330 340 340 122 37 13 1 359 9 354 312 9 359 339 46 15 11 81 95 76 139 290 306 279 284 300 30 43 360 333 336 40 3 329 316 310 293 300 317 310 299 241 134 305 272 188 208 188 142 155 169 172 192 183 179 166 94 1 356 4 353
68 109 87 46 11 328 320 23 27 45 74 56 58 166 146 186 221 71 310 213 34 336 329 2 326 358 359 338 340 31 141 353 356 12 11 11 353 230 25 336 111 69 12 12 65 110 30 157 284 313 295 317 3 57 55 34 347 300 313 345 322 307 303 294 301 313 287 293 271 162 254 277 274 272 154 148 174 174 173 202 193 159 61 29 16 3 1 359
107 116 92 60 33 360 347 70 22 17 72 31 301 230 214 184 123 100 283 188 45 325 328 352 331 355 358 334 338 83 143 308 320 17 12 1 340 214 30 7 72 83 59 61 49 256 340 14 356 340 332 11 21 16 30 65 29 282 317 333 312 303 299 289 293 281 250 290 282 189 286 293 298 341 116 146 173 168 178 202 183 111 44 19 9 8 4 357
128 125 88 63 37 26 43 57 22 29 28 326 335 233 213 188 139 61 3 131 344 318 325 342 325 356 346 324 353 72 180 291 320 355 348 360 6 248 87 25 345 311 108 139 139 250 336 22 12 345 350 25 359 318 334 67 195 262 300 316 300 294 287 279 279 264 258 304 296 302 352 313 297 330 118 146 185 173 175 175 125 56 29 11 4 9 1 355
139 139 79 50 25 25 36 28 64 146 130 113 94 94 189 187 214 334 45 191 313 344 156 342 341 346 332 319 23 50 21 348 22 318 322 14 25 16 88 28 332 308 289 129 98 153 91 36 25 348 357 357 309 301 302 187 213 265 295 303 295 287 279 266 245 249 275 284 255 354 12 351 305 305 126 129 262 144 87 56 65 28 13 4 3 5 355 354
133 155 36 357 324 342 2 20 111 144 146 138 106 66 143 187 279 42 10 249 357 24 175 8 357 312 333 352 40 16 9 27 12 329 332 38 22 16 69 146 329 323 351 35 41 58 73 51 51 58 14 286 273 282 262 218 239 286 312 309 303 296 287 252 193 214 257 252 266 9 12 349 305 310 69 83 191 152 40 7 8 359 354 341 346 1 353 350
22 4 319 323 302 295 327 266 147 141 149 175 208 57 115 225 276 91 75 169 29 1 342 14 360 332 354 17 19 355 358 358 357 3 1 9 19 15 26 18 340 346 48 38 23 18 45 56 59 25 283 267 277 288 242 223 257 303 329 324 328 314 304 334 197 239 243 270 329 4 353 325 288 289 70 144 186 168 129 5 303 311 327 327 341 357 351 350
23 3 343 338 306 281 308 194 180 152 166 269 294 238 200 318 19 45 354 4 6 360 20 349 351 356 346 351 8 354 350 343 354 9 352 360 36 26 39 39 349 352 55 5 342 343 246 233 200 233 261 301 322 324 345 272 303 338 343 344 349 338 341 346 331 324 277 271 340 355 335 311 270 242 136 153 168 164 162 205 245 293 337 345 356 353 345 345
42 26 15 14 10 4 19 173 169 153 102 8 342 260 240 40 39 50 337 357 347 334 20 252 313 321 312 332 7 350 341 308 340 349 343 16 59 54 69 54 16 6 339 327 336 337 312 258 246 258 291 315 339 347 344 327 337 350 6 16 358 342 347 321 307 325 297 288 321 332 316 297 297 286 154 139 163 171 183 213 253 355 354 353 353 343 335 333
59 51 45 41 40 35 25 34 58 335 10 19 274 340 54 66 72 118 35 29 43 300 320 268 311 311 326 38 17 353 16 184 332 347 345 14 48 32 42 38 20 11 283 306 342 326 313 295 285 322 297 293 349 53 232 288 306 316 26 77 37 332 320 289 295 319 302 299 311 310 288 311 320 274 155 158 199 191 199 244 353 5 355 350 343 335 331 330
60 50 44 37 29 23 22 22 346 314 325 320 269 42 58 74 37 45 44 11 2 334 320 188 309 312 75 96 69 41 61 302 356 14 10 20 37 360 353 7 5 8 340 319 11 317 304 282 217 20 346 321 30 75 213 294 274 282 21 86 42 297 223 257 274 283 293 294 299 297 266 315 328 233 149 205 247 305 334 346 358 354 346 343 336 335 335 334
42 36 33 26 16 8 5 358 336 347 269 293 53 57 52 77 16 16 3 288 324 327 308 296 329 333 16 124 231 6 198 228 329 3 78 78 64 25 41 29 352 10 39 19 355 18 322 284 202 100 360 9 36 317 287 38 236 287 2 23 278 256 180 243 280 283 295 289 292 309 292 308 330 311 183 227 303 333 341 347 348 341 341 344 340 340 337 335
9 18 30 20 9 359 356 20 31 30 296 15 70 74 40 75 2 348 333 318 300 262 299 334 41 349 360 351 327 345 326 240 303 311 143 125 122 19 23 72 22 10 61 94 343 104 93 290 262 207 204 284 288 319 13 349 296 251 38 299 293 283 161 178 287 299 305 288 288 300 296 310 320 300 215 308 327 339 344 344 340 337 343 344 339 338 334 335
345 308 40 15 6 360 6 25 9 318 268 66 78 91 38 40 20 360 342 316 254 243 323 360 45 174 5 341 320 334 336 342 350 345 3 64 352 11 360 24 64 43 66 116 331 101 147 293 284 215 150 188 250 334 23 325 335 118 154 202 342 345 309 314 309 299 296 294 294 297 300 300 284 284 326 327 333 349 347 342 338 336 341 339 336 336 334 335
333 260 50 5 3 18 30 16 347 335 71 73 76 98 69 64 59 25 348 311 245 269 2 3 318 93 51 354 321 322 348 358 339 339 9 2 335 16 49 352 26 19 4 30 326 324 298 267 275 285 5 117 173 225 178 264 349 92 141 107 79 170 258 281 278 265 278 290 301 306 305 293 258 307 329 331 345 355 346 339 335 335 340 338 335 334 333 333
325 218 13 358 359 26 31 31 33 34 60 66 67 82 66 108 115 45 360 350 298 337 18 349 338 358 6 18 14 329 347 323 310 318 340 3 348 30 49 31 338 341 344 348 318 316 309 252 264 303 337 340 207 303 283 187 112 102 200 18 40 310 269 248 240 181 234 285 308 310 301 290 304 317 326 345 352 351 344 337 333 335 338 334 332 332 333 332
324 148 347 354 2 2 19 44 44 32 70 71 68 75 32 166 136 76 27 7 352 96 52 17 10 8 349 355 19 38 321 298 300 314 326 20 37 19 42 32 341 330 328 328 269 319 323 271 280 302 308 302 204 33 340 3 108 101 259 149 139 217 321 314 285 153 112 275 293 297 291 292 304 310 343 357 347 343 342 337 335 337 333 330 332 334 335 335
345 112 331 347 359 8 36 64 27 15 76 64 46 86 23 257 133 72 16 12 350 57 61 56 30 11 5 1 345 6 349 298 301 340 336 48 53 26 58 310 318 302 294 328 108 58 349 272 277 279 268 294 54 30 2 41 80 93 110 123 135 169 141 225 278 293 355 287 281 277 278 285 302 11 360 350 340 337 339 339 340 337 331 331 334 335 336 334
36 129 345 349 344 344 57 73 39 31 72 129 205 82 10 31 90 157 291 26 359 324 359 62 64 33 42 29 327 348 18 306 286 6 360 26 57 59 161 279 305 247 256 343 74 43 345 232 266 277 258 160 33 342 357 34 56 85 140 133 120 159 192 209 237 308 338 277 285 286 275 281 311 354 342 337 335 333 335 343 343 336 332 333 334 334 335 333
44 159 11 7 11 61 83 72 106 80 81 148 125 67 22 46 52 43 36 34 21 351 353 20 82 54 25 30 297 304 29 13 342 114 45 343 52 189 241 5 354 343 38 72 346 352 323 267 310 316 313 330 338 333 335 337 350 146 176 134 115 150 215 251 237 132 269 258 277 290 282 286 304 316 321 330 331 329 333 345 342 334 331 332 331 332 333 332
43 125 45 20 34 65 86 49 120 116 114 117 87 54 58 71 56 19 19 35 31 9 359 350 84 338 293 150 247 271 195 140 324 139 171 344 118 183 216 198 264 354 67 114 280 309 266 270 304 309 306 315 311 305 304 308 315 306 168 149 154 168 178 241 270 235 270 289 292 277 277 290 301 308 318 328 329 331 341 343 337 332 332 332 332 333 332 330
60 44 6 12 32 55 66 22 69 103 124 120 84 35 21 64 107 208 347 26 32 337 265 227 176 214 252 249 275 276 208 167 185 307 316 324 83 159 179 193 229 219 99 118 259 254 266 274 279 261 242 247 269 279 291 305 300 287 266 192 176 184 176 126 209 256 286 306 294 268 269 290 301 308 318 326 331 337 342 338 334 333 335 334 333 332 330 329
66 58 8 357 26 44 51 31 36 71 111 108 88 62 41 70 119 181 359 61 92 281 247 254 269 255 316 329 315 304 306 229 180 191 298 264 286 127 180 200 219 181 152 169 202 153 320 276 275 300 265 260 276 282 287 293 278 277 285 258 182 176 163 141 197 262 302 310 287 285 292 296 301 310 317 324 336 341 338 336 334 333 334 335 333 330 328 330
50 137 198 214 70 40 39 16 18 53 59 53 95 114 64 90 97 15 28 100 184 184 203 320 16 49 43 352 297 317 342 335 239 188 253 243 263 249 207 219 195 163 159 173 180 113 6 259 231 3 285 282 289 285 278 274 266 271 282 280 239 179 164 182 233 258 283 273 280 298 304 300 302 310 316 328 342 340 335 335 334 332 332 334 332 329 331 335
65 111 137 304 113 106 44 305 335 52 60 61 95 94 19 74 90 73 326 302 205 172 219 40 40 29 23 344 306 310 343 342 284 268 278 242 268 261 240 248 167 171 188 184 150 127 171 248 232 234 274 285 285 277 268 272 278 281 283 283 269 180 176 208 248 262 269 269 279 296 299 298 302 310 320 336 341 335 330 331 332 332 332 333 333 333 336 338
132 134 130 93 89 84 36 320 339 36 66 54 83 45 336 56 82 136 157 356 35 126 313 2 3 343 313 304 301 290 352 351 249 254 229 201 266 238 221 314 95 194 211 162 120 191 168 310 317 202 283 292 283 275 288 298 294 293 292 287 256 214 210 224 271 296 299 293 294 299 298 296 302 319 330 334 332 328 329 333 333 332 332 334 337 338 339 338
104 123 138 114 84 19 357 28 344 20 30 11 45 15 313 61 64 64 38 20 38 49 13 1 346 320 228 227 267 279 31 314 252 256 241 216 257 208 178 350 25 228 208 139 186 231 170 291 313 38 302 291 297 324 321 309 297 279 282 274 235 239 259 272 293 301 303 303 304 305 300 298 314 335 332 327 328 330 334 336 334 331 332 336 340 339 337 334
101 95 111 99 90 24 355 350 336 54 62 349 28 50 82 75 61 16 48 8 58 58 31 353 340 319 251 228 262 286 323 285 273 286 289 267 277 346 111 45 28 258 212 145 178 161 93 287 299 360 308 285 310 330 314 305 302 281 274 262 210 283 331 322 308 306 305 305 306 302 300 311 330 337 329 327 332 333 334 337 332 329 333 337 338 336 333 332